Location: Mercogliano
(40.9167°N, 14.7333°E)
Time: 07:28:47
(UTC+00:00)

CZ-2C R/B - Pass Details

Date: 20 January 2021
Orbit: 785 x 870 km, 98.2° (Epoch: 08 March)

Event Time Altitude Azimuth Distance (km) Brightness Sun altitude
Exits shadow 17:45:41 31° 55° (NE) 1,480 3.5 -19.1°
Maximum altitude 17:47:37 40° 98° (E) 1,243 3.1 -19.4°
Drops below altitude 10° 17:52:50 10° 167° (SSE) 2,506 5.1 -20.4°
Sets 17:55:22 0° 174° (S) 3,441 5.9 -20.9°
